TOURFACTS.DK  
Stats and Facts from Tour de France.

Tour de France 2018 starts in 13 days
  Riders   Stages   Teams   Summits   Yearly  


 
Search by year

After 2017 - Stage 21:
 14824 starters.
  5132 different riders.
  639 teams.
  2232 stages.
  456 restdays.
  439589.60 km.
  5653 abandonnees.


Top 3
GC
Christopher Froome86:20:55
Rigoberto Urán86:21:49
Romain Bardet86:23:15
Climb
Warren Barguil169 pt.
Primoz Roglic80 pt.
Thomas De Gendt64 pt.
Sprint
Michael Matthews359 pt.
André Greipel234 pt.
Edvald Boasson Hagen220 pt.
Youth
Simon Yates86:27:09
Louis Meintjes86:29:15
Emanuel Buchmann86:54:16
Facts from Tour de France 2010
  |   Stages.  |   Stage winners.  |   Days in yellow  |   Average speed.  |   Route.  |   Teams.  |   All riders.  |   Rookies.  |  

  |   Withdrawls.  |   GC.  |   Polka  |   Green  |   White  |   Summits. (In tour)  |   Miscellaneous.  |  

Stage 19 on 24 - 07 - 2010
         Owning:    Andy Schleck    
Pick a stage:  Pro 1 2 3 4 5 6 7 8 9 10 11 12 13 14 15 16 17 18 19 20
  BordeauxPauillac | Dist: 52.00 km.

Average speed for all riders in stage:  45,597 km./hr.
    Place:Name:Team:Time:Km/h:
SUIFabian CancellaraDNKTeam Saxo Bank01:00:56  +  00:00:00=51,204 
GERTony MartinUSATeam Columbia-HTC01:01:13  +  00:00:17=50,967 
GERBert GrabschUSATeam Columbia-HTC01:02:44  +  00:01:48=49,734 
4 URSIgnatas KonovalovasCHECervelo Test Team01:03:30  +  00:02:34=49,134 
5 USADavid ZabriskieUSAGarmin-Transitions01:03:56  +  00:03:00=48,801 
6 NEDKoos MoerenhoutNLDRabobank01:03:59  +  00:03:03=48,763 
7 BLRVasil KiryienkaESPCaisse d´Epargne01:04:06  +  00:03:10=48,674 
8 NEDMaarten TjallingiiNLDRabobank01:04:17  +  00:03:21=48,535 
9 BELBradley WigginsGBRSky Procycling01:04:29  +  00:03:33=48,385 
10 WALGeraint ThomasGBRSky Procycling01:04:34  +  00:03:38=48,322 
11 RUSDenis MenchovNLDRabobank01:04:47  +  00:03:51=48,161 
12 FRAJérémy RoyFRAFrancaise Des Jeux01:04:56  +  00:04:00=48,049 
13 AUSStuart O'GradyDNKTeam Saxo Bank01:05:02  +  00:04:06=47,975 
14 BELMaxime MonfortUSATeam Columbia-HTC01:05:10  +  00:04:14=47,877 
15 RUSPavel BruttRUSTeam Katusha01:05:11  +  00:04:15=47,865 
16 DENNicki SřrensenDNKTeam Saxo Bank01:05:11  +  00:04:15=47,865 
17 MLTDavid MillarUSAGarmin-Transitions01:05:16  +  00:04:20=47,804 
18 BELJürgen RoelandtsBELOmega Pharma - Lotto01:05:29  +  00:04:33=47,646 
19 KAZDmitriy MuravyevUSATeam Radio Shack01:05:34  +  00:04:38=47,585 
20 SUISteve MorabitoUSABMC Racing Team01:05:35  +  00:04:39=47,573 
21 DENChris Anker SřrensenDNKTeam Saxo Bank01:05:42  +  00:04:46=47,489 
22 NEDMartijn MaaskantUSAGarmin-Transitions01:05:44  +  00:04:48=47,465 
23 BLRKanstantin SivtsovUSATeam Columbia-HTC01:05:55  +  00:04:59=47,332 
24 FRASébastien TurgotFRABbox Bouygues Telecom01:05:58  +  00:05:02=47,297 
25 GERSebastian LangBELOmega Pharma - Lotto01:06:03  +  00:05:07=47,237 
26 SUIJakob FuglsangDNKTeam Saxo Bank01:06:04  +  00:05:08=47,225 
27 FRAAnthony RouxFRAFrancaise Des Jeux01:06:05  +  00:05:09=47,213 
28 FRAChristophe KernFRACofidis Le Credit En Ligne01:06:10  +  00:05:14=47,154 
29 ARGJuan Antonio FlechaGBRSky Procycling01:06:11  +  00:05:15=47,142 
30 AUSBrett LancasterCHECervelo Test Team01:06:12  +  00:05:16=47,130 
31 UKRYaroslav PopovychUSATeam Radio Shack01:06:24  +  00:05:28=46,988 
32 GERDanilo HondoITALampre-Farnese Vini01:06:26  +  00:05:30=46,964 
33 KAZAlexandre VinokourovKAZAstana Pro Team01:06:28  +  00:05:32=46,941 
34 FRADimitri ChampionFRAAg2r La Mondiale01:06:34  +  00:05:38=46,870 
35 ESPAlberto ContadorKAZAstana Pro Team01:06:39  +  00:05:43=46,812 
36 BELDries DevenynsBELQuick Step01:06:39  +  00:05:43=46,812 
37 ESPCarlos BarredoBELQuick Step01:06:44  +  00:05:48=46,753 
38 BELJurgen Van De WalleBELQuick Step01:06:46  +  00:05:50=46,730 
39 FRAAmaël MoinardFRACofidis Le Credit En Ligne01:06:47  +  00:05:51=46,718 
40 ESPSamuel SanchezESPEuskaltel - Euskadi01:06:47  +  00:05:51=46,718 
41 USALevi LeipheimerUSATeam Radio Shack01:06:55  +  00:05:59=46,625 
42 USABrent BookwalterUSABMC Racing Team01:06:57  +  00:06:01=46,602 
43 ESPArkaitz DuranESPFooton-Servetto01:07:09  +  00:06:13=46,463 
44 LUXAndy SchleckDNKTeam Saxo Bank01:07:10  +  00:06:14=46,452 
45 ITADaniel OssITALiquigas-Doimo01:07:16  +  00:06:20=46,383 
46 UKRAndriy GrivkoKAZAstana Pro Team01:07:22  +  00:06:26=46,314 
47 ESPImanol ErvitiESPCaisse d´Epargne01:07:25  +  00:06:29=46,279 
48 ESPCarlos SastreCHECervelo Test Team01:07:26  +  00:06:30=46,268 
49 FRANicolas VogondyFRABbox Bouygues Telecom01:07:27  +  00:06:31=46,256 
50 FRASylvain ChavanelBELQuick Step01:07:34  +  00:06:38=46,177 
51 ESPRafael Valls FerriESPFooton-Servetto01:07:35  +  00:06:39=46,165 
52 CANRyder HesjedalUSAGarmin-Transitions01:07:36  +  00:06:40=46,154 
53 FRANicolas RocheFRAAg2r La Mondiale01:07:38  +  00:06:42=46,131 
54 FRAMatthieu SprickFRABbox Bouygues Telecom01:07:40  +  00:06:44=46,108 
55 FRADamien MonierFRACofidis Le Credit En Ligne01:07:43  +  00:06:47=46,074 
56 BELMaarten WynantsBELQuick Step01:07:45  +  00:06:49=46,052 
57 GERGrischa NiermannNLDRabobank01:07:45  +  00:06:49=46,052 
58 ITAManuel QuinziatoITALiquigas-Doimo01:07:49  +  00:06:53=46,006 
59 AUSLuke RobertsDEUTeam Milram01:07:49  +  00:06:53=46,006 
60 ITAAlessandro PetacchiITALampre-Farnese Vini01:07:50  +  00:06:54=45,995 
61 MDAAlexandr PliuschinRUSTeam Katusha01:07:50  +  00:06:54=45,995 
62 DENMatti BreschelDNKTeam Saxo Bank01:07:52  +  00:06:56=45,972 
63 FRAMaxime BouetFRAAg2r La Mondiale01:07:53  +  00:06:57=45,961 
64 AUTThomas RohreggerDEUTeam Milram01:07:56  +  00:07:00=45,927 
65 USAGeorge HincapieUSABMC Racing Team01:07:59  +  00:07:03=45,894 
66 SUIMartin ElmigerFRAAg2r La Mondiale01:08:00  +  00:07:04=45,882 
67 USALance ArmstrongUSATeam Radio Shack01:08:01  +  00:07:05=45,871 
68 GERLinus GerdemannDEUTeam Milram01:08:03  +  00:07:07=45,849 
69 JPNChristopher HornerUSATeam Radio Shack01:08:04  +  00:07:08=45,837 
70 SLOJanez BrajkovicUSATeam Radio Shack01:08:05  +  00:07:09=45,826 
71 BELJurgen Van Den BroeckBELOmega Pharma - Lotto01:08:06  +  00:07:10=45,815 
72 ENGStephen CummingsGBRSky Procycling01:08:07  +  00:07:11=45,804 
73 ESPRubén PlazaESPCaisse d´Epargne01:08:07  +  00:07:11=45,804 
74 ESPÓscar Freire GómezNLDRabobank01:08:07  +  00:07:11=45,804 
75 FRAPierrick FédrigoFRABbox Bouygues Telecom01:08:07  +  00:07:11=45,804 
76 ITAAdriano MaloriITALampre-Farnese Vini01:08:10  +  00:07:14=45,770 
77 FRAChristophe MoreauESPCaisse d´Epargne01:08:10  +  00:07:14=45,770 
78 ESPJosé Joaquin RojasESPCaisse d´Epargne01:08:12  +  00:07:16=45,748 
79 ESPLuis León SánchezESPCaisse d´Epargne01:08:14  +  00:07:18=45,725 
80 CANMichael BarryGBRSky Procycling01:08:15  +  00:07:19=45,714 
81 ESPJuan Manuel GarateNLDRabobank01:08:16  +  00:07:20=45,703 
82 CZERoman KreuzigerITALiquigas-Doimo01:08:21  +  00:07:25=45,647 
83 AUSMatthew LloydBELOmega Pharma - Lotto01:08:23  +  00:07:27=45,625 
84 ITAFrancesco GavazziITALampre-Farnese Vini01:08:29  +  00:07:33=45,559 
85 BELKevin De WeertBELQuick Step01:08:30  +  00:07:34=45,547 
86 IOMMark CavendishUSATeam Columbia-HTC01:08:30  +  00:07:34=45,547 
87 GERAndréas KlödenUSATeam Radio Shack01:08:31  +  00:07:35=45,536 
88 CANJeremy HuntCHECervelo Test Team01:08:42  +  00:07:46=45,415 
89 ITAAlessandro BallanUSABMC Racing Team01:08:43  +  00:07:47=45,404 
90 PORSergio PaulinhoUSATeam Radio Shack01:08:45  +  00:07:49=45,382 
91 NEDKarsten KroonUSABMC Racing Team01:08:45  +  00:07:49=45,382 
92 RUSAlexandr KolobnevRUSTeam Katusha01:08:47  +  00:07:51=45,360 
93 FRABenoit VaugrenardFRAFrancaise Des Jeux01:08:47  +  00:07:51=45,360 
94 GERJohannes FröhlingerDEUTeam Milram01:08:50  +  00:07:54=45,327 
95 AUSMichael RogersUSATeam Columbia-HTC01:08:52  +  00:07:56=45,305 
96 ITAFrancesco BellottiITALiquigas-Doimo01:08:54  +  00:07:58=45,283 
97 SWEThomas LövkvistGBRSky Procycling01:08:55  +  00:07:59=45,272 
98 GERChristian KneesDEUTeam Milram01:08:57  +  00:08:01=45,250 
99 GERFabian WegmannDEUTeam Milram01:08:58  +  00:08:02=45,239 
100 ESPJosé Ivan GutierrezESPCaisse d´Epargne01:09:00  +  00:08:04=45,217 
101 ESPAitor PerezESPFooton-Servetto01:09:11  +  00:08:15=45,098 
102 BELFrancis De GreefBELOmega Pharma - Lotto01:09:11  +  00:08:15=45,098 
103 FRAMatthieu LadagnousFRAFrancaise Des Jeux01:09:12  +  00:08:16=45,087 
104 ESPAlan PerezESPEuskaltel - Euskadi01:09:21  +  00:08:25=44,989 
105 UKRVolodymir GustovCHECervelo Test Team01:09:21  +  00:08:25=44,989 
106 SLOGrega BoleITALampre-Farnese Vini01:09:24  +  00:08:28=44,957 
107 FRAStéphane AugeFRACofidis Le Credit En Ligne01:09:24  +  00:08:28=44,957 
108 RUSEduard VorganovRUSTeam Katusha01:09:26  +  00:08:30=44,935 
109 NEDRobert GesinkNLDRabobank01:09:29  +  00:08:33=44,903 
110 ESPRuben PerezESPEuskaltel - Euskadi01:09:32  +  00:08:36=44,871 
111 ITAEros CapecchiESPFooton-Servetto01:09:32  +  00:08:36=44,871 
112 FRASandy CasarFRAFrancaise Des Jeux01:09:35  +  00:08:39=44,838 
113 BELMario AertsBELOmega Pharma - Lotto01:09:36  +  00:08:40=44,828 
114 KAZMaxim IglinskiyKAZAstana Pro Team01:09:37  +  00:08:41=44,817 
115 FRAJérôme PineauBELQuick Step01:09:40  +  00:08:44=44,785 
116 ITAPaolo TiralongoKAZAstana Pro Team01:09:40  +  00:08:44=44,785 
117 SUIGregory RastUSATeam Radio Shack01:09:41  +  00:08:45=44,774 
118 FRAPierre RollandFRABbox Bouygues Telecom01:09:46  +  00:08:50=44,720 
119 ESPIńaki Isasi FloresESPEuskaltel - Euskadi01:09:46  +  00:08:50=44,720 
120 ESPJosé BenitezESPFooton-Servetto01:09:51  +  00:08:55=44,667 
121 BLRAliaksandr KuchynskiITALiquigas-Doimo01:09:57  +  00:09:01=44,603 
122 PORRui CostaESPCaisse d´Epargne01:09:58  +  00:09:02=44,593 
123 AUSWesley SulzbergerFRAFrancaise Des Jeux01:09:59  +  00:09:03=44,582 
124 NORThor HushovdCHECervelo Test Team01:09:59  +  00:09:03=44,582 
125 FRAAnthony GeslinFRAFrancaise Des Jeux01:10:01  +  00:09:05=44,561 
126 JPNYukiya ArashiroFRABbox Bouygues Telecom01:10:03  +  00:09:07=44,540 
127 ESPBenjamin NovalKAZAstana Pro Team01:10:05  +  00:09:09=44,518 
128 FRAThomas VoecklerFRABbox Bouygues Telecom01:10:07  +  00:09:11=44,497 
129 ESPGorka VerdugoESPEuskaltel - Euskadi01:10:09  +  00:09:13=44,476 
130 NZLJulian DeanUSAGarmin-Transitions01:10:09  +  00:09:13=44,476 
131 POLSylvester SzmydITALiquigas-Doimo01:10:09  +  00:09:13=44,476 
132 ITAMauro Da DaltoITALampre-Farnese Vini01:10:11  +  00:09:15=44,455 
133 GERJens VoigtDNKTeam Saxo Bank01:10:14  +  00:09:18=44,423 
134 FRACyril GautierFRABbox Bouygues Telecom01:10:15  +  00:09:19=44,413 
135 AUTBernhard EiselUSATeam Columbia-HTC01:10:17  +  00:09:21=44,392 
136 GERMarcus BurghardtUSABMC Racing Team01:10:19  +  00:09:23=44,371 
137 FRARémi PauriolFRACofidis Le Credit En Ligne01:10:20  +  00:09:24=44,360 
138 DENBrian VandborgITALiquigas-Doimo01:10:24  +  00:09:28=44,318 
139 BELJohan VansummerenUSAGarmin-Transitions01:10:25  +  00:09:29=44,308 
140 BELKevin SeeldraeyersBELQuick Step01:10:28  +  00:09:32=44,276 
141 ESPEgoi MartínezESPEuskaltel - Euskadi01:10:38  +  00:09:42=44,172 
142 ITARinaldo NocentiniFRAAg2r La Mondiale01:10:43  +  00:09:47=44,120 
143 ITAMirco LorenzettoITALampre-Farnese Vini01:10:43  +  00:09:47=44,120 
144 FRAMathieu PergetESPCaisse d´Epargne01:10:45  +  00:09:49=44,099 
145 ITAIvan BassoITALiquigas-Doimo01:10:47  +  00:09:51=44,078 
146 ESPDaniel NavarroKAZAstana Pro Team01:10:53  +  00:09:57=44,016 
147 ESPDaniel MorenoBELOmega Pharma - Lotto01:10:54  +  00:09:58=44,006 
148 FRAChristophe Le MevelFRAFrancaise Des Jeux01:10:58  +  00:10:02=43,964 
149 AUSRobbie McEwenRUSTeam Katusha01:11:02  +  00:10:06=43,923 
150 FRAJulien El FarčsFRACofidis Le Credit En Ligne01:11:05  +  00:10:09=43,892 
151 NOREdvald Boasson HagenGBRSky Procycling01:11:07  +  00:10:11=43,872 
152 SLOKristjan KorenITALiquigas-Doimo01:11:09  +  00:10:13=43,851 
153 FRARémy Di GrégorioFRAFrancaise Des Jeux01:11:10  +  00:10:14=43,841 
154 ESPJoaquim RodriguezRUSTeam Katusha01:11:13  +  00:10:17=43,810 
155 ENGDaniel LloydCHECervelo Test Team01:11:15  +  00:10:19=43,789 
156 ESPDavid De La FuenteKAZAstana Pro Team01:11:16  +  00:10:20=43,779 
157 FRAAnthony CharteauFRABbox Bouygues Telecom01:11:24  +  00:10:28=43,697 
158 GERGerald CiolekDEUTeam Milram01:11:25  +  00:10:29=43,687 
159 FRAChristophe RiblonFRAAg2r La Mondiale01:11:25  +  00:10:29=43,687 
160 NEDLars BoomNLDRabobank01:11:26  +  00:10:30=43,677 
161 GERAndreas KlierCHECervelo Test Team01:11:29  +  00:10:33=43,647 
162 ITADamiano CunegoITALampre-Farnese Vini01:11:36  +  00:10:40=43,575 
163 BELSerge PauwelsGBRSky Procycling01:11:40  +  00:10:44=43,535 
164 RUSSerguei IvanovRUSTeam Katusha01:11:51  +  00:10:55=43,424 
165 ESPJesus  HernandezKAZAstana Pro Team01:11:51  +  00:10:55=43,424 
166 AUSCadel EvansUSABMC Racing Team01:11:53  +  00:10:57=43,404 
167 FRALloyd MondoryFRAAg2r La Mondiale01:11:58  +  00:11:02=43,353 
168 ESPIvan VelascoESPEuskaltel - Euskadi01:12:27  +  00:11:31=43,064 
169 FRASébastien MinardFRACofidis Le Credit En Ligne01:12:29  +  00:11:33=43,044 
170 FRAJohn GadretFRAAg2r La Mondiale01:12:44  +  00:11:48=42,896 


Todays birthdays.

1895  François Colomines
1901  Victor Pellier
1921  Maurice Carpentier
1921  Hans Hutmacher
1924  Norbert Callens
1928  Armand Baeyens
1933  Adriano Zamboni
1944  Ercole Gualazzini
1952  Jose Lopez
1956  Alfons De Wolf
1958  Sergio Jaramillo
1961  José Vieira
1963  Luigi Furlan
1972  Dariusz Baranowski
1973  Cyril Saugrain
1975  Andréas Klöden
1977  Angelo Furlan
1979  Thomas Voeckler
1983  Jérémy Roy




Visits: